| time (UTC) | temp F | wind direction | speed MPH | gust MPH | rain 1hr in | rain 24hr in | rain mn in | humidity % | barometer mb |
| 20260505200054 | 50 | 355 | 0.0 | 3.0 | 0.00 | 0.00 | 0.00 | 73 | 1011.6 |
| 20260505194553 | 51 | 11 | 1.0 | 4.0 | 0.00 | 0.00 | 0.00 | 72 | 1011.6 |
| 20260505193055 | 52 | 360 | 2.0 | 4.0 | 0.00 | 0.00 | 0.00 | 71 | 1011.3 |
| 20260505191603 | 53 | 350 | 2.0 | 5.0 | 0.00 | 0.00 | 0.00 | 69 | 1011.2 |
| 20260505190106 | 54 | 323 | 2.0 | 8.0 | 0.00 | 0.00 | 0.00 | 66 | 1011.1 |
| 20260505184557 | 55 | 329 | 2.0 | 9.0 | 0.00 | 0.00 | 0.00 | 65 | 1011.1 |
| 20260505183055 | 56 | 13 | 2.0 | 9.0 | 0.00 | 0.00 | 0.00 | 65 | 1011.1 |
| 20260505181639 | 56 | 326 | 2.0 | 9.0 | 0.00 | 0.00 | 0.00 | 65 | 1011.1 |
| 20260505180104 | 56 | 336 | 2.0 | 9.0 | 0.00 | 0.00 | 0.00 | 66 | 1011.1 |
| 20260505174553 | 57 | 342 | 2.0 | 9.0 | 0.00 | 0.00 | 0.00 | 65 | 1011.1 |
| 20260505173053 | 57 | 350 | 2.0 | 13.0 | 0.00 | 0.00 | 0.00 | 66 | 1011.0 |
| 20260505171600 | 57 | 337 | 3.0 | 9.0 | 0.00 | 0.00 | 0.00 | 66 | 1011.1 |
| 20260505170054 | 58 | 28 | 2.0 | 10.0 | 0.00 | 0.00 | 0.00 | 65 | 1011.0 |
| 20260505164558 | 58 | 319 | 3.0 | 12.0 | 0.00 | 0.00 | 0.00 | 64 | 1011.1 |
| 20260505163052 | 59 | 297 | 2.0 | 10.0 | 0.00 | 0.00 | 0.00 | 64 | 1011.0 |
| 20260505161553 | 59 | 299 | 3.0 | 8.0 | 0.00 | 0.00 | 0.00 | 63 | 1011.1 |
| 20260505153056 | 63 | 346 | 3.0 | 9.0 | 0.00 | 0.00 | 0.00 | 56 | 1011.1 |
| 20260505151559 | 64 | 309 | 2.0 | 8.0 | 0.00 | 0.00 | 0.00 | 56 | 1011.0 |
| 20260505124605 | 59 | 24 | 2.0 | 6.0 | 0.00 | 0.00 | 0.00 | 69 | 1011.7 |
| 20260505123113 | 59 | 298 | 3.0 | 9.0 | 0.00 | 0.00 | 0.00 | 70 | 1011.7 |
| 20260505121600 | 58 | 297 | 1.0 | 7.0 | 0.00 | 0.00 | 0.00 | 72 | 1011.7 |
| 20260505120121 | 59 | 321 | 3.0 | 9.0 | 0.00 | 0.00 | 0.00 | 70 | 1011.7 |
| 20260505114603 | 58 | 322 | 2.0 | 8.0 | 0.00 | 0.00 | 0.00 | 72 | 1011.7 |
| 20260505113101 | 57 | 5 | 3.0 | 9.0 | 0.00 | 0.00 | 0.00 | 74 | 1011.7 |
| 20260505111602 | 56 | 360 | 2.0 | 8.0 | 0.00 | 0.00 | 0.00 | 75 | 1011.7 |
| 20260505110118 | 56 | 355 | 2.0 | 4.0 | 0.00 | 0.00 | 0.00 | 76 | 1011.9 |
| 20260505101655 | 54 | 336 | 2.0 | 7.0 | 0.00 | 0.00 | 0.00 | 79 | 1011.9 |
| 20260505094553 | 53 | 27 | 1.0 | 4.0 | 0.00 | 0.00 | 0.00 | 81 | 1012.0 |
| 20260505093053 | 53 | 0 | 1.0 | 5.0 | 0.00 | 0.00 | 0.00 | 80 | 1012.1 |
| 20260505091557 | 53 | 352 | 0.0 | 4.0 | 0.00 | 0.00 | 0.00 | 80 | 1011.9 |
| 20260505090057 | 53 | 52 | 2.0 | 6.0 | 0.00 | 0.00 | 0.00 | 81 | 1011.9 |
| 20260505084604 | 53 | 17 | 1.0 | 6.0 | 0.00 | 0.00 | 0.00 | 82 | 1011.8 |
| 20260505083105 | 53 | 0 | 2.0 | 5.0 | 0.00 | 0.00 | 0.00 | 82 | 1011.8 |
| 20260505081554 | 53 | 25 | 2.0 | 5.0 | 0.00 | 0.00 | 0.00 | 82 | 1011.7 |
| 20260505080100 | 52 | 293 | 1.0 | 9.0 | 0.00 | 0.00 | 0.00 | 83 | 1011.7 |
| 20260505074554 | 52 | 96 | 2.0 | 10.0 | 0.00 | 0.00 | 0.00 | 83 | 1011.6 |
| 20260505073101 | 52 | 35 | 2.0 | 11.0 | 0.00 | 0.00 | 0.00 | 83 | 1011.5 |
| 20260505071555 | 52 | 25 | 2.0 | 8.0 | 0.00 | 0.00 | 0.00 | 84 | 1011.5 |
| 20260505070100 | 51 | 38 | 3.0 | 14.0 | 0.00 | 0.00 | 0.00 | 84 | 1011.5 |
| 20260505064636 | 51 | 94 | 2.0 | 7.0 | 0.00 | 0.00 | 0.00 | 85 | 1011.6 |
| 20260505063053 | 51 | 0 | 0.0 | 3.0 | 0.00 | 0.00 | 0.00 | 86 | 1011.7 |
| 20260505061552 | 50 | 11 | 1.0 | 7.0 | 0.00 | 0.00 | 0.00 | 86 | 1011.6 |
| 20260505060058 | 50 | 79 | 1.0 | 9.0 | 0.00 | 0.00 | 0.00 | 86 | 1011.4 |
| 20260505054558 | 50 | 0 | 0.0 | 3.0 | 0.00 | 0.00 | 0.00 | 86 | 1011.5 |
| 20260505053100 | 49 | 271 | 0.0 | 2.0 | 0.00 | 0.00 | 0.00 | 86 | 1011.5 |
| 20260505051555 | 49 | 299 | 0.0 | 2.0 | 0.00 | 0.00 | 0.00 | 85 | 1011.3 |
| 20260505050110 | 49 | 246 | 0.0 | 3.0 | 0.00 | 0.00 | 0.00 | 85 | 1011.3 |
| 20260505041603 | 51 | 77 | 2.0 | 11.0 | 0.00 | 0.00 | 0.00 | 84 | 1011.0 |
| 20260505040104 | 51 | 128 | 4.0 | 13.0 | 0.00 | 0.00 | 0.00 | 84 | 1011.1 |
| 20260505034611 | 51 | 90 | 3.0 | 10.0 | 0.00 | 0.00 | 0.00 | 84 | 1011.0 |
| 20260505033058 | 51 | 107 | 4.0 | 12.0 | 0.00 | 0.00 | 0.00 | 84 | 1011.0 |
| 20260505031555 | 51 | 99 | 4.0 | 13.0 | 0.00 | 0.00 | 0.00 | 84 | 1011.1 |
| 20260505030122 | 51 | 52 | 3.0 | 11.0 | 0.00 | 0.00 | 0.00 | 84 | 1011.2 |
| 20260505024610 | 52 | 95 | 3.0 | 8.0 | 0.00 | 0.00 | 0.00 | 84 | 1011.1 |
| 20260505023054 | 52 | 94 | 2.0 | 11.0 | 0.00 | 0.00 | 0.00 | 84 | 1011.2 |
| 20260505021554 | 52 | 119 | 2.0 | 10.0 | 0.00 | 0.00 | 0.00 | 85 | 1011.3 |
| 20260505020107 | 52 | 103 | 4.0 | 13.0 | 0.00 | 0.00 | 0.00 | 85 | 1011.3 |
| 20260505014555 | 52 | 73 | 3.0 | 11.0 | 0.00 | 0.00 | 0.00 | 86 | 1011.5 |
| 20260505013054 | 52 | 65 | 5.0 | 11.0 | 0.00 | 0.00 | 0.00 | 86 | 1011.6 |
| 20260505011556 | 52 | 30 | 2.0 | 11.0 | 0.00 | 0.00 | 0.00 | 86 | 1011.7 |
| 20260505010110 | 52 | 42 | 3.0 | 11.0 | 0.00 | 0.00 | 0.00 | 86 | 1011.7 |
| 20260505004620 | 52 | 0 | 1.0 | 6.0 | 0.00 | 0.00 | 0.00 | 86 | 1011.9 |
| 20260505003100 | 52 | 0 | 1.0 | 8.0 | 0.00 | 0.00 | 0.00 | 86 | 1011.9 |
| 20260505001555 | 52 | 0 | 1.0 | 4.0 | 0.00 | 0.00 | 0.00 | 85 | 1012.1 |
| 20260505000111 | 53 | 0 | 0.0 | 1.0 | 0.00 | 0.00 | 0.00 | 85 | 1012.1 |
| 20260504234555 | 53 | 0 | 0.0 | 6.0 | 0.00 | 0.00 | 0.00 | 86 | 1012.2 |
| 20260504233108 | 53 | 67 | 1.0 | 8.0 | 0.00 | 0.00 | 0.00 | 86 | 1012.2 |
| 20260504231625 | 53 | 65 | 0.0 | 7.0 | 0.00 | 0.00 | 0.00 | 86 | 1012.2 |
| 20260504230101 | 53 | 76 | 3.0 | 9.0 | 0.00 | 0.00 | 0.00 | 87 | 1012.1 |
| 20260504224611 | 53 | 103 | 1.0 | 5.0 | 0.00 | 0.00 | 0.00 | 87 | 1012.2 |
| 20260504223058 | 52 | 36 | 1.0 | 9.0 | 0.00 | 0.00 | 0.00 | 87 | 1012.3 |
| 20260504221643 | 51 | 46 | 0.0 | 4.0 | 0.00 | 0.00 | 0.00 | 87 | 1012.5 |
| 20260504220057 | 50 | 307 | 0.0 | 2.0 | 0.00 | 0.00 | 0.00 | 85 | 1012.5 |
| 20260504214555 | 50 | 0 | 0.0 | 0.0 | 0.00 | 0.00 | 0.00 | 84 | 1012.6 |
| 20260504213102 | 51 | 0 | 0.0 | 0.0 | 0.00 | 0.00 | 0.00 | 84 | 1012.6 |
| 20260504211555 | 51 | 0 | 0.0 | 0.0 | 0.00 | 0.00 | 0.00 | 83 | 1012.6 |
| 20260504210054 | 52 | 0 | 0.0 | 1.0 | 0.00 | 0.00 | 0.00 | 83 | 1012.7 |
| 20260504204559 | 52 | 0 | 1.0 | 2.0 | 0.00 | 0.00 | 0.00 | 82 | 1012.7 |
| 20260504203053 | 53 | 0 | 0.0 | 2.0 | 0.00 | 0.00 | 0.00 | 82 | 1012.6 |
| 20260504201555 | 53 | 0 | 0.0 | 2.0 | 0.00 | 0.00 | 0.00 | 81 | 1012.6 |